www.pogodaiklimat.ru

Погода и климат >> Архив погоды >> Россия >> Ненецкий АО >> Варандей


ПОГОДА в Варандее

  • Прогноз погоды в Варандее
  • Монитор погоды в Варандее

АРХИВ ПОГОДЫ в Варандее

Время (UTC), дата Ветер
(напр.,м/с)
 
Видим.   Явления Облачность Т
(С)
Тd
(С)
f
(%)
Тe
(С)
Тes
(С)
Комфортность P
(гПа)
Po
(гПа)
Тmin
(С)
Tmax
(С)
R
(мм)
R24
(мм)
S
(см)
03 17.02 В 2 10 км слаб. снег 10/0 2000 м
[As op]
-10.2 -10.6 97 -15 -15 990.0 989.1 -10.2 0.0 75
06 17.02 В 4 10 км {снег} 10/10 270 м
[St]
-11.0 -11.4 97 -18 -18 989.0 988.1 -11.0
09 17.02 В 6 2000 м слаб. снег 10/10 210 м
[Frnb Ns]
-10.7 -11.1 97 -19 -19 988.6 987.7
12 17.02 В 6 4000 м слаб. снег 10/10 270 м
[Frnb Ns]
-10.8 -11.2 97 -19 -19 988.2 987.3
15 17.02 В 5 20 км {снег} 9/9 400 м
[Sc]
-10.8 -11.2 97 -19 -19 988.1 987.2 -10.2 0.3
18 17.02 В 4 4000 м слаб. снег 10/10 300 м
[Frnb Ns]
-10.1 -10.4 98 -17 -17 988.3 987.4
21 17.02 СВ 4 10 км слаб. снег 10/10 300 м
[Frnb Ns]
-10.7 -11.1 97 -18 -18 988.6 987.7
00 18.02 С 8-10
{11}
10 км слаб. снег {метель} 10/0 2000 м
[As op]
-12.1 -12.6 96 -22 -22 989.7 988.8
03 18.02 С 9-11
{11}
10 км слаб. снег {метель} 10/0 2000 м
[As op]
-14.4 -15.2 94 -26 -26 991.5 990.6 -14.4 2 75
06 18.02 С 11-13
{13}
4000 м слаб. снег {метель} 9/0 2000 м
[Ac As]
-15.2 -16.2 92 -28 -28 994.3 993.4 -15.2
09 18.02 С 8-10
{13}
20 км позёмок {снег} 4/0
[Cs]
-15.9 -17.3 89 -27 -27 997.2 996.3
12 18.02 СЗ 5
{10}
20 км {снег, метель} ясно -16.9 -19.1 83 -26 -26 999.8 998.9
15 18.02 ЮЗ 4 20 км ясно -20.0 -22.9 78 -29 -29 1001.6 1000.7 -14.4 0.0
18 18.02 Ю 7 20 км ясно -23.7 -25.9 82 -36 -36 опасность
обморожения
1001.1 1000.2
21 18.02 С 10-11
{12}
10 км позёмок ясно -20.1 -21.5 89 -34 -34 опасность
обморожения
999.9 999.0
00 19.02 Ю 9-11
{12}
н/о н/о -21.1 -22.5 88 -34 -34 опасность
обморожения
998.9 998.0
03 19.02 Ю 12-14
{14}
10 км позёмок 4/3 300 м
[Sc diur, vesp Cs]
-20.0 -21.4 89 -35 -35 опасность
обморожения
998.0 997.1 -27.0 75
06 19.02 Ю 13-16
{16}
500 м слаб. снег {метель} 10/0 2000 м
[As op]
-17.9 -19.0 91 -32 -32 опасность
обморожения
996.7 995.8
09 19.02 Ю 13-16
{16}
500 м слаб. снег {метель} 10/0 2000 м
[As op]
-17.5 -18.6 91 -32 -32 опасность
обморожения
995.4 994.5
12 19.02 Ю 13-16
{16}
н/о {снег, метель} н/о -15.7 -16.6 93 -29 -29 994.7 993.8
15 19.02 Ю 12-15
{16}
500 м слаб. снег {метель} 10/0 2000 м
[As op]
-15.1 -16.0 93 -28 -28 994.2 993.3 -15.1 1
18 19.02 Ю 9-11
{16}
10 км слаб. снег {метель} 10/0 2000 м
[As op]
-14.2 -15.0 94 -25 -25 993.8 992.9
21 19.02 Ю 6
{11}
10 км слаб. снег {метель} 10/0 2000 м
[As op]
-13.7 -14.5 94 -23 -23 993.8 992.9
00 20.02 ЮЗ 6 10 км {снег, метель} 10/0
[Cs]
-15.1 -16.0 93 -25 -25 994.3 993.4
03 20.02 СЗ 2 10 км 4/0
[Cs]
-17.7 -18.5 93 -23 -23 996.2 995.3 -18.8 5 75
06 20.02 С 3 10 км 8/0
[Cs]
-17.1 -18.1 92 -24 -24 998.4 997.5
09 20.02 ЮВ 2 10 км 8/0
[Cs]
-17.0 -18.3 90 -22 -22 1000.4 999.5
12 20.02 СВ 3 1000 м дымка 10/0
[Cs]
-17.6 -18.7 91 -25 -25 1001.4 1000.5
15 20.02 В 2 2000 м в посл. час туман 10/10 150 м
[St]
-21.3 -22.8 88 -27 -27 1002.3 1001.4 -15.8
18 20.02 В 1 1000 м дымка {туман} 10/10 210 м
[St]
-21.2 -22.8 87 -24 -24 1002.5 1001.6
21 20.02 штиль 0 20 км 4/4 300 м
[St]
-20.4 -21.9 88 -20 -20 1002.6 1001.7
00 21.02 штиль 0 20 км ясно -18.8 -20.1 89 -19 -19 1002.0 1001.1
03 21.02 СВ 3 20 км 10/0
[Cs]
-17.7 -18.8 91 -25 -25 1002.1 1001.2 -21.7 75
06 21.02 СВ 1 10 км 10/0 2000 м
[As op Ci fib]
-15.5 -16.4 93 -18 -18 1002.7 1001.8
09 21.02 СВ 11-13
{13}
10 км позёмок 10/6 300 м
[Sc Cs]
-14.6 -15.5 93 -27 -27 1003.3 1002.4
12 21.02 СВ 10-13
{14}
10 км позёмок 10/0
[Cs]
-14.1 -14.8 94 -26 -26 1004.8 1003.9
15 21.02 С 8
{13}
20 км позёмок 10/0
[Cs]
-14.2 -15.1 93 -25 -25 1007.0 1006.1 -13.8
18 21.02 С 6
{10}
20 км {метель} 8/0
[Cs]
-15.3 -16.8 88 -25 -25 1009.6 1008.7
21 21.02 С 5 20 км ясно -16.9 -18.4 88 -26 -26 1011.9 1011.0
00 22.02 СЗ 4 20 км ясно -17.7 -18.9 90 -26 -26 1014.1 1013.2
03 22.02 СЗ 4 20 км 3/0 2000 м
[Ac trans]
-19.0 -20.2 90 -28 -28 1016.5 1015.6 -19.0 73
06 22.02 ЮЗ 2 20 км ясно -25.8 -27.7 84 -33 -32 опасность
обморожения
1019.0 1018.1 -27.7
09 22.02 ЮЗ 4 20 км ясно -25.0 -26.9 84 -35 -34 опасность
обморожения
1021.1 1020.2
12 22.02 Ю 5 20 км ясно -25.3 -27.4 83 -37 -37 опасность
обморожения
1022.8 1021.9
15 22.02 ЮЗ 4 20 км 3/3 300 м
[Sc diur, vesp]
-25.2 -27.2 83 -35 -35 опасность
обморожения
1022.4 1021.5 -18.7
18 22.02 Ю 4 10 км ясно -25.2 -27.2 83 -35 -35 опасность
обморожения
1020.3 1019.4
21 22.02 Ю 8 20 км 3/0
[Ci fib]
-19.9 -21.3 89 -32 -32 опасность
обморожения
1017.5 1016.6
00 23.02 Ю 11-13
{13}
10 км позёмок 10/0
[Cs]
-17.2 -18.3 91 -30 -30 1013.1 1012.2
03 23.02 Ю 14-17
{17}
500 м слаб. снег {метель} 10/0 2000 м
[As op]
-15.1 -16.0 93 -29 -29 1008.0 1007.1 -27.0 0.0 73
06 23.02 Ю 15-18
{20}
200 м слаб. снег {метель} 10/0 2000 м
[As op]
-14.5 -15.4 93 -28 -28 1004.4 1003.5
09 23.02 Ю 14-16
{18}
200 м слаб. снег {метель} 10/0 2000 м
[As op]
-13.2 -14.0 94 -26 -26 1001.2 1000.3
12 23.02 Ю 14-17
{18}
200 м слаб. снег {метель} 10/0 2000 м
[As op]
-10.9 -11.4 96 -23 -23 997.5 996.6
15 23.02 Ю 15-19
{19}
200 м снег {метель} 10/0 2000 м
[As op]
-9.5 -9.9 97 -22 -22 994.5 993.6 -9.5 9
18 23.02 ЮЗ 10-13
{19}
4000 м метель {снег} 10/10 300 м
[St]
-5.3 -5.3 100 -15 -15 992.7 991.8
21 23.02 ЮЗ 10-13
{14}
4000 м слаб. снег {метель} 10/10 300 м
[Frnb Ns]
-2.3 -2.3 100 -11 -11 991.0 990.2
00 24.02 З 7
{13}
10 км в посл. час снег {метель} 10/10 200 м
[St]
-1.5 -1.5 100 -9 -9 990.5 989.7

 

Местоположение метеостанции Варандей (Ненецкий АО, Россия): широта 68.82 долгота 58.02 высота над уровнем моря 7 м.

В архиве по умолчанию представлена погода в Варандее за последнюю неделю. Архивные данные за месяц целиком и за предыдущие месяцы, начиная с января 2011 года, Вы можете получить, выбрав интересующий диапазон дат из раскрывающегося списка и нажав кнопку "Ввод!".


*Определитесь, кто Вы:
робот инопланетянин человек

Внимание! Время в таблицах - всемирное. Для получения местного времени необходимо прибавить поправку, которая равна 3 ч.

Смотрите также архив погоды в соседних городах и на ближайших метеорологических станциях:

Погода на Мысе Константиновском (Ненецкий АО, Россия) (106 км)
Погода на Мысе Белый Нос (Ненецкий АО, Россия) (122 км)
Погода в Хорей-Вере (Ненецкий АО, Россия) (155 км)
Погода в Ходоварихе (Ненецкий АО, Россия) (172 км)
Погода в Амдерме (Ненецкий АО, Россия) (179 км)
Погода в Имени Федорова (Ненецкий АО, Россия) (186 км)
Погода в Нарьян-Маре (Ненецкий АО, Россия) (245 км)
Погода в Сенгейском Шаре (Ненецкий АО, Россия) (277 км)
Погода в Усть-Каре (Ненецкий АО, Россия) (279 км)
Погода в Воркуте (Коми, Россия) (288 км)

Пояснения к столбцам:

Ветер - указаны скорость ветра в м/с - средняя за 10 мин, порывы в срок и между сроками (в фигурных скобках) и направление, откуда дует ветер: С - северный, СВ - северо-восточный, В - восточный, ЮВ - юго-восточный, Ю - южный, ЮЗ - юго-западный, З - западный, СЗ - северо-западный.
Видимость - горизонтальная дальность видимости в метрах или километрах. При видимости от 1 до 10 км при отсутствии осадков обычно наблюдается дымка, при ухудшении видимости до 1 км и менее - туман. В сухую погоду видимость может ухудшаться дымом, пылью или мглою.
Явления - указаны атмосферные явления, наблюдавшиеся в срок или в последний час перед сроком; фигурными скобками обозначены явления, наблюдавшиеся между сроками (за 1-3 часа до срока); квадратными скобками обозначены град или гололедные отложения с указанием их диаметра в мм.
Облачность - указаны через наклонную черту общая и нижняя облачность в баллах и высота нижней границы облаков в метрах; квадратными скобками обозначены формы облаков: Ci - перистые, Cs - перисто-слоистые, Cc - перисто-кучевые, Ac - высококучевые, As - высокослоистые, Sc - слоисто-кучевые, Ns - слоисто-дождевые, Cu - кучевые, Cb - кучево-дождевые. Подробнее классификацию облаков см. в Атласе облаков (PDF).
T - Температура воздуха - температура, измеренная на высоте 2 м над землей.
Td - Температура точки росы - температура, при понижении до которой содержащийся в воздухе водяной пар достигнет насыщения.
f - Относительная влажность воздуха - влажноcть воздуха, измеренная на высоте 2 м над землей.
Te - Эффективная температура - температура, которую ощущает одетый по сезону человек в тени. Характеристика душности погоды. При расчете учитывается влияние влажности воздуха и скорости ветра на теплоощущения человека.
Tes - Эффективная температура на солнце - температура, которую ощущает человек, с поправкой на солнечный нагрев. Характеристика знойности погоды. Зависит от высоты солнца над горизонтом, облачности и скорости ветра. Ночью, в пасмурную погоду, а также при ветре 12 м/с и более поправка равна нулю.
P - Атмосферное давление - приведенное к уровню моря атмосферное давление.
Po - Атмосферное давление - измеренное на уровне метеостанции атмосферное давление.
Tmin - Минимальная температура - минимум температуры воздуха на высоте 2 м над землей.
Tmax - Максимальная температура - максимум температуры воздуха на высоте 2 м над землей.
R - Количество осадков - Количество выпавших осадков за период времени, мм. При наведении курсора мыши на число - период времени, за который выпало указанное количество осадков.
R24 - Количество осадков - Количество выпавших осадков за 24 часа, мм.
S - Снежный покров - Высота снежного покрова, см. При наведении курсора мыши на число - состояние снежного покрова и степень покрытия местности в баллах.